| time (UTC) | temp F | wind direction | speed MPH | gust MPH | rain 1hr in | rain 24hr in | rain mn in | humidity % | barometer mb |
| 20260505211316 | 140 | 305 | 0.0 | 0.0 | 0.00 | 0.00 | 0.00 | 1003.3 | |
| 20260505210812 | 140 | 316 | 3.0 | 6.0 | 0.00 | 0.00 | 0.00 | 1003.5 | |
| 20260505210309 | 140 | 258 | 0.0 | 0.0 | 0.00 | 0.00 | 0.00 | 1003.4 | |
| 20260505205806 | 140 | 250 | 0.0 | 0.0 | 0.00 | 0.00 | 0.00 | 1003.7 | |
| 20260505205305 | 140 | 250 | 0.0 | 0.0 | 0.00 | 0.00 | 0.00 | 1003.7 | |
| 20260505204801 | 140 | 298 | 3.0 | 5.0 | 0.00 | 0.00 | 0.00 | 1003.6 | |
| 20260505204259 | 140 | 229 | 0.0 | 1.0 | 0.00 | 0.00 | 0.00 | 1003.7 | |
| 20260505203755 | 140 | 265 | 0.0 | 0.0 | 0.00 | 0.00 | 0.00 | 1003.8 | |
| 20260505203253 | 140 | 268 | 0.0 | 0.0 | 0.00 | 0.00 | 0.00 | 1003.8 | |
| 20260505202749 | 140 | 311 | 0.0 | 0.0 | 0.00 | 0.00 | 0.00 | 1004.2 | |
| 20260505202245 | 140 | 300 | 0.0 | 0.0 | 0.00 | 0.00 | 0.00 | 1003.8 | |
| 20260505201741 | 140 | 318 | 0.0 | 0.0 | 0.00 | 0.00 | 0.00 | 1004.4 | |
| 20260505201239 | 140 | 253 | 0.0 | 0.0 | 0.00 | 0.00 | 0.00 | 1004.0 | |
| 20260505200738 | 140 | 239 | 3.0 | 6.0 | 0.00 | 0.00 | 0.00 | 1004.0 | |
| 20260505200234 | 140 | 217 | 3.0 | 7.0 | 0.00 | 0.00 | 0.00 | 1004.2 | |
| 20260505195723 | 140 | 217 | 6.0 | 7.0 | 0.00 | 0.00 | 0.00 | 1004.4 | |
| 20260505195222 | 140 | 242 | 1.0 | 2.0 | 0.00 | 0.00 | 0.00 | 1004.2 | |
| 20260505194719 | 140 | 223 | 4.0 | 7.0 | 0.00 | 0.00 | 0.00 | 1004.4 | |
| 20260505194215 | 140 | 236 | 4.0 | 6.0 | 0.00 | 0.00 | 0.00 | 1004.3 | |
| 20260505193710 | 140 | 223 | 0.0 | 0.0 | 0.00 | 0.00 | 0.00 | 1004.5 | |
| 20260505193208 | 140 | 240 | 0.0 | 0.0 | 0.00 | 0.00 | 0.00 | 1004.5 | |
| 20260505192706 | 140 | 241 | 6.0 | 10.0 | 0.00 | 0.00 | 0.00 | 1004.6 | |
| 20260505192204 | 140 | 219 | 5.0 | 8.0 | 0.00 | 0.00 | 0.00 | 1004.7 | |
| 20260505191702 | 140 | 231 | 7.0 | 9.0 | 0.00 | 0.00 | 0.00 | 1004.7 | |
| 20260505191200 | 140 | 225 | 5.0 | 7.0 | 0.00 | 0.00 | 0.00 | 1004.7 | |
| 20260505190656 | 140 | 230 | 7.0 | 8.0 | 0.00 | 0.00 | 0.00 | 1004.7 | |
| 20260505190155 | 140 | 228 | 7.0 | 8.0 | 0.00 | 0.00 | 0.00 | 1004.3 | |
| 20260505185653 | 140 | 217 | 7.0 | 9.0 | 0.00 | 0.00 | 0.00 | 1004.7 | |
| 20260505185149 | 140 | 228 | 8.0 | 11.0 | 0.00 | 0.00 | 0.00 | 1004.4 | |
| 20260505184645 | 140 | 239 | 8.0 | 11.0 | 0.00 | 0.00 | 0.00 | 1004.3 | |
| 20260505184143 | 140 | 216 | 7.0 | 9.0 | 0.00 | 0.00 | 0.00 | 1004.6 | |
| 20260505183639 | 140 | 219 | 8.0 | 9.0 | 0.00 | 0.00 | 0.00 | 1004.6 | |
| 20260505183137 | 140 | 246 | 11.0 | 14.0 | 0.00 | 0.00 | 0.00 | 1004.5 | |
| 20260505182633 | 140 | 241 | 9.0 | 13.0 | 0.00 | 0.00 | 0.00 | 1004.7 | |
| 20260505182130 | 140 | 231 | 8.0 | 10.0 | 0.00 | 0.00 | 0.00 | 1004.6 | |
| 20260505181626 | 140 | 218 | 11.0 | 14.0 | 0.00 | 0.00 | 0.00 | 1004.9 | |
| 20260505181124 | 140 | 250 | 8.0 | 9.0 | 0.00 | 0.00 | 0.00 | 1004.7 | |
| 20260505180620 | 140 | 209 | 3.0 | 3.0 | 0.00 | 0.00 | 0.00 | 1004.7 | |
| 20260505180118 | 140 | 231 | 11.0 | 13.0 | 0.00 | 0.00 | 0.00 | 1004.9 | |
| 20260505175613 | 140 | 201 | 7.0 | 8.0 | 0.00 | 0.00 | 0.00 | 1005.2 | |
| 20260505175110 | 140 | 222 | 5.0 | 6.0 | 0.00 | 0.00 | 0.00 | 1005.0 | |
| 20260505174607 | 140 | 217 | 7.0 | 9.0 | 0.00 | 0.00 | 0.00 | 1004.8 | |
| 20260505174103 | 140 | 215 | 11.0 | 15.0 | 0.00 | 0.00 | 0.00 | 1005.1 | |
| 20260505173559 | 140 | 208 | 11.0 | 13.0 | 0.00 | 0.00 | 0.00 | 1005.0 | |
| 20260505173056 | 140 | 232 | 7.0 | 9.0 | 0.00 | 0.00 | 0.00 | 1004.9 | |
| 20260505172554 | 140 | 195 | 7.0 | 10.0 | 0.00 | 0.00 | 0.00 | 1004.9 | |
| 20260505172051 | 140 | 213 | 9.0 | 10.0 | 0.00 | 0.00 | 0.00 | 1005.2 | |
| 20260505171545 | 140 | 220 | 8.0 | 9.0 | 0.00 | 0.00 | 0.00 | 1005.0 | |
| 20260505171042 | 140 | 210 | 12.0 | 16.0 | 0.00 | 0.00 | 0.00 | 1005.0 | |
| 20260505170539 | 140 | 203 | 8.0 | 13.0 | 0.00 | 0.00 | 0.00 | 1005.0 | |
| 20260505170036 | 140 | 216 | 12.0 | 15.0 | 0.00 | 0.00 | 0.00 | 1004.9 | |
| 20260505165531 | 140 | 217 | 5.0 | 8.0 | 0.00 | 0.00 | 0.00 | 1004.8 | |
| 20260505165027 | 140 | 197 | 6.0 | 7.0 | 0.00 | 0.00 | 0.00 | 1005.1 | |
| 20260505164523 | 140 | 199 | 9.0 | 10.0 | 0.00 | 0.00 | 0.00 | 1004.9 | |
| 20260505164021 | 140 | 212 | 9.0 | 13.0 | 0.00 | 0.00 | 0.00 | 1005.0 | |
| 20260505163520 | 140 | 199 | 11.0 | 13.0 | 0.00 | 0.00 | 0.00 | 1005.0 | |
| 20260505163016 | 140 | 227 | 9.0 | 13.0 | 0.00 | 0.00 | 0.00 | 1005.0 | |
| 20260505162509 | 140 | 225 | 9.0 | 11.0 | 0.00 | 0.00 | 0.00 | 1004.9 | |
| 20260505162006 | 140 | 223 | 7.0 | 8.0 | 0.00 | 0.00 | 0.00 | 1005.0 | |
| 20260505161503 | 140 | 190 | 5.0 | 6.0 | 0.00 | 0.00 | 0.00 | 1005.0 | |
| 20260505161000 | 140 | 225 | 7.0 | 10.0 | 0.00 | 0.00 | 0.00 | 1004.9 | |
| 20260505160458 | 140 | 204 | 10.0 | 13.0 | 0.00 | 0.00 | 0.00 | 1004.8 | |
| 20260505152934 | 140 | 199 | 10.0 | 11.0 | 0.00 | 0.00 | 0.00 | 1004.9 | |
| 20260505152431 | 140 | 197 | 8.0 | 10.0 | 0.00 | 0.00 | 0.00 | 1004.5 | |
| 20260505151926 | 140 | 227 | 8.0 | 10.0 | 0.00 | 0.00 | 0.00 | 1004.9 | |
| 20260505151422 | 140 | 189 | 10.0 | 13.0 | 0.00 | 0.00 | 0.00 | 1004.7 | |
| 20260505150920 | 140 | 180 | 6.0 | 8.0 | 0.00 | 0.00 | 0.00 | 1004.4 | |
| 20260505150416 | 140 | 180 | 4.0 | 8.0 | 0.00 | 0.00 | 0.00 | 1004.5 | |
| 20260505140340 | 140 | 186 | 0.0 | 0.0 | 0.00 | 0.00 | 0.00 | 1005.1 | |
| 20260505130304 | 140 | 181 | 0.0 | 0.0 | 0.00 | 0.00 | 0.00 | 1004.6 | |
| 20260505124754 | 140 | 190 | 0.0 | 0.0 | 0.00 | 0.00 | 0.00 | 1004.5 | |
| 20260505124251 | 140 | 191 | 0.0 | 0.0 | 0.00 | 0.00 | 0.00 | 1004.9 | |
| 20260505123746 | 140 | 188 | 0.0 | 0.0 | 0.00 | 0.00 | 0.00 | 1004.6 | |
| 20260505123243 | 140 | 162 | 0.0 | 0.0 | 0.00 | 0.00 | 0.00 | 1004.6 | |
| 20260505122740 | 140 | 174 | 0.0 | 0.0 | 0.00 | 0.00 | 0.00 | 1004.8 | |
| 20260505122237 | 140 | 169 | 0.0 | 0.0 | 0.00 | 0.00 | 0.00 | 1004.4 | |
| 20260505121734 | 140 | 179 | 0.0 | 0.0 | 0.00 | 0.00 | 0.00 | 1004.5 | |
| 20260505121231 | 140 | 173 | 0.0 | 0.0 | 0.00 | 0.00 | 0.00 | 1004.5 | |
| 20260505120727 | 140 | 168 | 0.0 | 0.0 | 0.00 | 0.00 | 0.00 | 1004.3 | |
| 20260505120223 | 140 | 176 | 0.0 | 0.0 | 0.00 | 0.00 | 0.00 | 1004.0 | |
| 20260505115721 | 140 | 139 | 0.0 | 0.0 | 0.00 | 0.00 | 0.00 | 1004.0 | |
| 20260505115220 | 140 | 166 | 0.0 | 0.0 | 0.00 | 0.00 | 0.00 | 1004.0 | |
| 20260505114717 | 140 | 171 | 0.0 | 0.0 | 0.00 | 0.00 | 0.00 | 1004.2 | |
| 20260505114213 | 140 | 148 | 0.0 | 0.0 | 0.00 | 0.00 | 0.00 | 1004.2 | |
| 20260505113709 | 140 | 177 | 0.0 | 0.0 | 0.00 | 0.00 | 0.00 | 1004.3 | |
| 20260505113206 | 140 | 151 | 0.0 | 0.0 | 0.00 | 0.00 | 0.00 | 1003.9 | |
| 20260505112702 | 140 | 141 | 0.0 | 0.0 | 0.00 | 0.00 | 0.00 | 1003.8 | |
| 20260505112200 | 140 | 154 | 0.0 | 0.0 | 0.00 | 0.00 | 0.00 | 1003.9 | |
| 20260505111700 | 140 | 167 | 0.0 | 0.0 | 0.00 | 0.00 | 0.00 | 1003.8 | |
| 20260505111155 | 140 | 207 | 0.0 | 0.0 | 0.00 | 0.00 | 0.00 | 1003.8 | |
| 20260505110652 | 140 | 154 | 0.0 | 0.0 | 0.00 | 0.00 | 0.00 | 1003.8 | |
| 20260505110149 | 140 | 172 | 0.0 | 0.0 | 0.00 | 0.00 | 0.00 | 1003.8 | |
| 20260505102125 | 140 | 179 | 2.0 | 5.0 | 0.00 | 0.00 | 0.00 | 1003.8 | |
| 20260505101624 | 140 | 178 | 0.0 | 1.0 | 0.00 | 0.00 | 0.00 | 1003.7 | |
| 20260505101120 | 140 | 198 | 0.0 | 0.0 | 0.00 | 0.00 | 0.00 | 1003.4 | |
| 20260505100616 | 140 | 184 | 0.0 | 0.0 | 0.00 | 0.00 | 0.00 | 1003.9 | |
| 20260505100113 | 140 | 173 | 1.0 | 5.0 | 0.00 | 0.00 | 0.00 | 1003.9 | |
| 20260505095609 | 140 | 178 | 0.0 | 0.0 | 0.00 | 0.00 | 0.00 | 1003.5 | |
| 20260505095106 | 140 | 166 | 3.0 | 6.0 | 0.00 | 0.00 | 0.00 | 1003.8 | |
| 20260505094602 | 140 | 185 | 0.0 | 0.0 | 0.00 | 0.00 | 0.00 | 1003.8 | |
| 20260505094058 | 140 | 185 | 0.0 | 2.0 | 0.00 | 0.00 | 0.00 | 1003.9 | |
| 20260505093555 | 140 | 171 | 0.0 | 0.0 | 0.00 | 0.00 | 0.00 | 1003.8 | |
| 20260505093053 | 140 | 179 | 0.0 | 1.0 | 0.00 | 0.00 | 0.00 | 1003.9 | |
| 20260505092550 | 140 | 168 | 0.0 | 0.0 | 0.00 | 0.00 | 0.00 | 1003.7 | |
| 20260505092048 | 140 | 169 | 1.0 | 3.0 | 0.00 | 0.00 | 0.00 | 1003.9 | |
| 20260505091544 | 140 | 190 | 0.0 | 0.0 | 0.00 | 0.00 | 0.00 | 1004.0 | |
| 20260505091043 | 140 | 166 | 0.0 | 0.0 | 0.00 | 0.00 | 0.00 | 1003.8 | |
| 20260505090541 | 140 | 161 | 1.0 | 5.0 | 0.00 | 0.00 | 0.00 | 1004.0 | |
| 20260505090038 | 140 | 176 | 0.0 | 0.0 | 0.00 | 0.00 | 0.00 | 1003.9 | |
| 20260505085536 | 140 | 184 | 0.0 | 0.0 | 0.00 | 0.00 | 0.00 | 1004.0 | |
| 20260505085034 | 140 | 181 | 2.0 | 5.0 | 0.00 | 0.00 | 0.00 | 1004.2 | |
| 20260505084532 | 140 | 148 | 0.0 | 0.0 | 0.00 | 0.00 | 0.00 | 1004.5 | |
| 20260505084030 | 140 | 172 | 1.0 | 3.0 | 0.00 | 0.00 | 0.00 | 1004.3 | |
| 20260505083526 | 140 | 177 | 0.0 | 0.0 | 0.00 | 0.00 | 0.00 | 1004.5 | |
| 20260505083023 | 140 | 189 | 0.0 | 0.0 | 0.00 | 0.00 | 0.00 | 1004.5 | |
| 20260505082519 | 140 | 172 | 0.0 | 1.0 | 0.00 | 0.00 | 0.00 | 1004.6 | |
| 20260505082015 | 140 | 177 | 3.0 | 7.0 | 0.00 | 0.00 | 0.00 | 1004.4 | |
| 20260505081512 | 140 | 185 | 0.0 | 0.0 | 0.00 | 0.00 | 0.00 | 1004.5 | |
| 20260505081009 | 140 | 148 | 0.0 | 0.0 | 0.00 | 0.00 | 0.00 | 1004.5 | |
| 20260505080505 | 140 | 193 | 0.0 | 1.0 | 0.00 | 0.00 | 0.00 | 1004.5 | |
| 20260505080001 | 140 | 126 | 0.0 | 2.0 | 0.00 | 0.00 | 0.00 | 1004.5 | |
| 20260505075458 | 140 | 193 | 0.0 | 0.0 | 0.00 | 0.00 | 0.00 | 1004.4 | |
| 20260505074955 | 140 | 204 | 0.0 | 0.0 | 0.00 | 0.00 | 0.00 | 1004.4 | |
| 20260505074453 | 140 | 148 | 1.0 | 6.0 | 0.00 | 0.00 | 0.00 | 1004.4 | |
| 20260505073949 | 140 | 201 | 0.0 | 0.0 | 0.00 | 0.00 | 0.00 | 1004.2 | |
| 20260505073447 | 140 | 181 | 3.0 | 7.0 | 0.00 | 0.00 | 0.00 | 1004.7 | |
| 20260505072944 | 140 | 190 | 3.0 | 6.0 | 0.00 | 0.00 | 0.00 | 1004.8 | |
| 20260505072440 | 140 | 182 | 2.0 | 5.0 | 0.00 | 0.00 | 0.00 | 1004.9 | |
| 20260505071936 | 140 | 177 | 0.0 | 0.0 | 0.00 | 0.00 | 0.00 | 1004.8 | |
| 20260505071432 | 140 | 181 | 1.0 | 3.0 | 0.00 | 0.00 | 0.00 | 1005.0 | |
| 20260505070931 | 140 | 195 | 0.0 | 2.0 | 0.00 | 0.00 | 0.00 | 1004.9 | |
| 20260505070427 | 140 | 191 | 0.0 | 0.0 | 0.00 | 0.00 | 0.00 | 1004.8 | |
| 20260505065923 | 140 | 177 | 6.0 | 9.0 | 0.00 | 0.00 | 0.00 | 1005.2 | |
| 20260505065419 | 140 | 179 | 0.0 | 1.0 | 0.00 | 0.00 | 0.00 | 1005.0 | |
| 20260505064916 | 140 | 187 | 4.0 | 8.0 | 0.00 | 0.00 | 0.00 | 1005.2 | |
| 20260505064414 | 140 | 192 | 0.0 | 0.0 | 0.00 | 0.00 | 0.00 | 1005.3 | |
| 20260505063912 | 140 | 193 | 4.0 | 8.0 | 0.00 | 0.00 | 0.00 | 1005.3 | |
| 20260505063407 | 140 | 203 | 0.0 | 2.0 | 0.00 | 0.00 | 0.00 | 1005.5 | |
| 20260505062904 | 140 | 215 | 0.0 | 0.0 | 0.00 | 0.00 | 0.00 | 1005.4 | |
| 20260505062402 | 140 | 199 | 1.0 | 3.0 | 0.00 | 0.00 | 0.00 | 1005.2 | |
| 20260505061858 | 140 | 174 | 5.0 | 9.0 | 0.00 | 0.00 | 0.00 | 1005.5 | |
| 20260505061356 | 140 | 187 | 4.0 | 10.0 | 0.00 | 0.00 | 0.00 | 1005.4 | |
| 20260505060854 | 140 | 182 | 0.0 | 1.0 | 0.00 | 0.00 | 0.00 | 1005.4 | |
| 20260505060350 | 140 | 188 | 6.0 | 11.0 | 0.00 | 0.00 | 0.00 | 1005.3 | |
| 20260505055846 | 140 | 221 | 0.0 | 0.0 | 0.00 | 0.00 | 0.00 | 1005.1 | |
| 20260505055342 | 140 | 182 | 7.0 | 9.0 | 0.00 | 0.00 | 0.00 | 1005.5 | |
| 20260505054840 | 140 | 173 | 0.0 | 3.0 | 0.00 | 0.00 | 0.00 | 1005.5 | |
| 20260505054337 | 140 | 148 | 6.0 | 9.0 | 0.00 | 0.00 | 0.00 | 1005.4 | |
| 20260505053835 | 140 | 150 | 8.0 | 8.0 | 0.00 | 0.00 | 0.00 | 1005.5 | |
| 20260505053332 | 140 | 162 | 7.0 | 8.0 | 0.00 | 0.00 | 0.00 | 1005.4 | |
| 20260505052828 | 140 | 186 | 8.0 | 10.0 | 0.00 | 0.00 | 0.00 | 1005.2 | |
| 20260505052325 | 140 | 175 | 11.0 | 14.0 | 0.00 | 0.00 | 0.00 | 1005.2 | |
| 20260505051823 | 140 | 136 | 1.0 | 2.0 | 0.00 | 0.00 | 0.00 | 1005.3 | |
| 20260505051320 | 140 | 119 | 4.0 | 9.0 | 0.00 | 0.00 | 0.00 | 1004.9 | |
| 20260505050818 | 140 | 176 | 3.0 | 8.0 | 0.00 | 0.00 | 0.00 | 1005.1 | |
| 20260505050317 | 140 | 175 | 2.0 | 3.0 | 0.00 | 0.00 | 0.00 | 1005.4 | |
| 20260505041746 | 140 | 126 | 4.0 | 7.0 | 0.00 | 0.00 | 0.00 | 1005.2 | |
| 20260505041243 | 140 | 154 | 7.0 | 10.0 | 0.00 | 0.00 | 0.00 | 1005.4 | |
| 20260505040741 | 140 | 161 | 8.0 | 9.0 | 0.00 | 0.00 | 0.00 | 1005.5 | |
| 20260505040238 | 140 | 130 | 9.0 | 14.0 | 0.00 | 0.00 | 0.00 | 1005.5 | |
| 20260505035735 | 140 | 173 | 1.0 | 3.0 | 0.00 | 0.00 | 0.00 | 1005.2 | |
| 20260505035231 | 140 | 138 | 9.0 | 11.0 | 0.00 | 0.00 | 0.00 | 1005.6 | |
| 20260505034728 | 140 | 155 | 8.0 | 10.0 | 0.00 | 0.00 | 0.00 | 1005.6 | |
| 20260505034225 | 140 | 188 | 3.0 | 7.0 | 0.00 | 0.00 | 0.00 | 1005.2 | |
| 20260505033721 | 140 | 160 | 3.0 | 7.0 | 0.00 | 0.00 | 0.00 | 1005.2 | |
| 20260505033219 | 140 | 181 | 4.0 | 8.0 | 0.00 | 0.00 | 0.00 | 1005.2 | |
| 20260505032717 | 140 | 148 | 7.0 | 9.0 | 0.00 | 0.00 | 0.00 | 1005.2 | |
| 20260505032212 | 140 | 162 | 1.0 | 5.0 | 0.00 | 0.00 | 0.00 | 1005.3 | |
| 20260505031710 | 140 | 169 | 8.0 | 11.0 | 0.00 | 0.00 | 0.00 | 1005.3 | |
| 20260505031206 | 140 | 153 | 0.0 | 3.0 | 0.00 | 0.00 | 0.00 | 1005.3 | |
| 20260505030703 | 140 | 146 | 8.0 | 9.0 | 0.00 | 0.00 | 0.00 | 1005.3 | |
| 20260505030159 | 140 | 158 | 6.0 | 8.0 | 0.00 | 0.00 | 0.00 | 1005.2 | |
| 20260505025655 | 140 | 141 | 5.0 | 7.0 | 0.00 | 0.00 | 0.00 | 1005.0 | |
| 20260505025154 | 140 | 143 | 1.0 | 3.0 | 0.00 | 0.00 | 0.00 | 1005.1 | |
| 20260505024651 | 140 | 144 | 4.0 | 7.0 | 0.00 | 0.00 | 0.00 | 1005.2 | |
| 20260505024148 | 140 | 92 | 3.0 | 5.0 | 0.00 | 0.00 | 0.00 | 1005.0 | |
| 20260505023646 | 140 | 124 | 4.0 | 8.0 | 0.00 | 0.00 | 0.00 | 1005.1 | |
| 20260505023143 | 140 | 157 | 0.0 | 2.0 | 0.00 | 0.00 | 0.00 | 1005.1 | |
| 20260505022640 | 140 | 168 | 0.0 | 0.0 | 0.00 | 0.00 | 0.00 | 1005.1 | |
| 20260505022137 | 140 | 153 | 0.0 | 0.0 | 0.00 | 0.00 | 0.00 | 1005.0 | |
| 20260505021634 | 140 | 189 | 0.0 | 0.0 | 0.00 | 0.00 | 0.00 | 1005.1 | |
| 20260505021130 | 140 | 140 | 0.0 | 0.0 | 0.00 | 0.00 | 0.00 | 1005.1 | |
| 20260505020626 | 140 | 165 | 1.0 | 2.0 | 0.00 | 0.00 | 0.00 | 1005.0 | |
| 20260505020122 | 140 | 129 | 0.0 | 0.0 | 0.00 | 0.00 | 0.00 | 1004.8 | |
| 20260505015619 | 140 | 143 | 8.0 | 10.0 | 0.00 | 0.00 | 0.00 | 1005.0 | |
| 20260505015110 | 140 | 163 | 0.0 | 1.0 | 0.00 | 0.00 | 0.00 | 1005.1 | |
| 20260505014607 | 140 | 179 | 1.0 | 2.0 | 0.00 | 0.00 | 0.00 | 1004.9 | |
| 20260505014104 | 140 | 157 | 2.0 | 5.0 | 0.00 | 0.00 | 0.00 | 1004.9 | |
| 20260505013601 | 140 | 145 | 1.0 | 5.0 | 0.00 | 0.00 | 0.00 | 1005.0 | |
| 20260505013059 | 140 | 169 | 1.0 | 3.0 | 0.00 | 0.00 | 0.00 | 1004.8 | |
| 20260505012556 | 140 | 154 | 1.0 | 3.0 | 0.00 | 0.00 | 0.00 | 1005.0 | |
| 20260505012053 | 140 | 168 | 0.0 | 1.0 | 0.00 | 0.00 | 0.00 | 1004.9 | |
| 20260505011549 | 140 | 184 | 8.0 | 9.0 | 0.00 | 0.00 | 0.00 | 1004.8 | |
| 20260505011047 | 140 | 190 | 3.0 | 6.0 | 0.00 | 0.00 | 0.00 | 1004.9 | |
| 20260505010542 | 140 | 176 | 2.0 | 5.0 | 0.00 | 0.00 | 0.00 | 1004.8 | |
| 20260505010039 | 140 | 145 | 0.0 | 0.0 | 0.00 | 0.00 | 0.00 | 1004.9 | |
| 20260505005535 | 140 | 186 | 6.0 | 7.0 | 0.00 | 0.00 | 0.00 | 1004.7 | |
| 20260505005033 | 140 | 177 | 8.0 | 9.0 | 0.00 | 0.00 | 0.00 | 1004.8 | |
| 20260505004529 | 140 | 190 | 3.0 | 7.0 | 0.00 | 0.00 | 0.00 | 1004.8 | |
| 20260505004026 | 140 | 176 | 11.0 | 13.0 | 0.00 | 0.00 | 0.00 | 1004.9 | |
| 20260505003523 | 140 | 172 | 0.0 | 1.0 | 0.00 | 0.00 | 0.00 | 1005.0 | |
| 20260505003020 | 140 | 158 | 3.0 | 8.0 | 0.00 | 0.00 | 0.00 | 1005.1 | |
| 20260505002521 | 140 | 214 | 1.0 | 2.0 | 0.00 | 0.00 | 0.00 | 1005.0 | |
| 20260505002015 | 140 | 175 | 2.0 | 5.0 | 0.00 | 0.00 | 0.00 | 1005.3 | |
| 20260505001512 | 140 | 158 | 2.0 | 6.0 | 0.00 | 0.00 | 0.00 | 1005.1 | |
| 20260505001009 | 140 | 189 | 5.0 | 7.0 | 0.00 | 0.00 | 0.00 | 1005.2 | |
| 20260505000506 | 140 | 161 | 4.0 | 7.0 | 0.00 | 0.00 | 0.00 | 1005.2 | |
| 20260505000004 | 140 | 225 | 5.0 | 9.0 | 0.00 | 0.00 | 0.00 | 1005.2 | |
| 20260504235500 | 140 | 158 | 12.0 | 13.0 | 0.00 | 0.00 | 0.00 | 1005.2 | |
| 20260504234956 | 140 | 194 | 7.0 | 9.0 | 0.00 | 0.00 | 0.00 | 1005.1 | |
| 20260504234454 | 140 | 116 | 9.0 | 10.0 | 0.00 | 0.00 | 0.00 | 1005.4 | |
| 20260504233950 | 140 | 173 | 2.0 | 6.0 | 0.00 | 0.00 | 0.00 | 1005.2 | |
| 20260504233446 | 140 | 130 | 8.0 | 11.0 | 0.00 | 0.00 | 0.00 | 1005.3 | |
| 20260504232943 | 140 | 183 | 12.0 | 14.0 | 0.00 | 0.00 | 0.00 | 1005.6 | |
| 20260504232440 | 140 | 176 | 13.0 | 18.0 | 0.00 | 0.00 | 0.00 | 1005.6 | |
| 20260504231938 | 140 | 180 | 5.0 | 7.0 | 0.00 | 0.00 | 0.00 | 1005.5 | |
| 20260504231433 | 140 | 170 | 7.0 | 9.0 | 0.00 | 0.00 | 0.00 | 1005.7 | |
| 20260504230930 | 140 | 193 | 10.0 | 13.0 | 0.00 | 0.00 | 0.00 | 1005.6 | |
| 20260504230427 | 140 | 171 | 15.0 | 20.0 | 0.00 | 0.00 | 0.00 | 1005.4 | |
| 20260504225926 | 140 | 163 | 4.0 | 9.0 | 0.00 | 0.00 | 0.00 | 1005.4 | |
| 20260504225422 | 140 | 186 | 9.0 | 11.0 | 0.00 | 0.00 | 0.00 | 1005.5 | |
| 20260504224920 | 140 | 170 | 6.0 | 9.0 | 0.00 | 0.00 | 0.00 | 1005.6 | |
| 20260504224416 | 140 | 155 | 10.0 | 14.0 | 0.00 | 0.00 | 0.00 | 1005.5 | |
| 20260504223913 | 140 | 179 | 7.0 | 11.0 | 0.00 | 0.00 | 0.00 | 1005.6 | |
| 20260504223408 | 140 | 145 | 4.0 | 10.0 | 0.00 | 0.00 | 0.00 | 1005.5 | |
| 20260504222905 | 140 | 173 | 5.0 | 7.0 | 0.00 | 0.00 | 0.00 | 1005.7 | |
| 20260504222402 | 140 | 170 | 13.0 | 17.0 | 0.00 | 0.00 | 0.00 | 1005.6 | |
| 20260504221901 | 140 | 164 | 12.0 | 15.0 | 0.00 | 0.00 | 0.00 | 1005.5 | |
| 20260504221356 | 140 | 130 | 7.0 | 11.0 | 0.00 | 0.00 | 0.00 | 1005.6 | |
| 20260504220854 | 140 | 179 | 9.0 | 10.0 | 0.00 | 0.00 | 0.00 | 1005.6 | |
| 20260504220350 | 140 | 195 | 3.0 | 3.0 | 0.00 | 0.00 | 0.00 | 1005.7 | |
| 20260504215848 | 140 | 193 | 8.0 | 11.0 | 0.00 | 0.00 | 0.00 | 1005.6 | |
| 20260504215344 | 140 | 195 | 11.0 | 16.0 | 0.00 | 0.00 | 0.00 | 1005.9 | |
| 20260504214840 | 140 | 148 | 10.0 | 14.0 | 0.00 | 0.00 | 0.00 | 1005.9 | |
| 20260504214337 | 140 | 130 | 14.0 | 17.0 | 0.00 | 0.00 | 0.00 | 1006.0 | |
| 20260504213834 | 140 | 165 | 9.0 | 14.0 | 0.00 | 0.00 | 0.00 | 1006.2 | |
| 20260504213329 | 140 | 174 | 14.0 | 16.0 | 0.00 | 0.00 | 0.00 | 1006.0 | |
| 20260504212827 | 140 | 166 | 16.0 | 20.0 | 0.00 | 0.00 | 0.00 | 1006.2 | |
| 20260504212323 | 140 | 176 | 8.0 | 10.0 | 0.00 | 0.00 | 0.00 | 1006.4 | |
| 20260504211821 | 140 | 201 | 12.0 | 16.0 | 0.00 | 0.00 | 0.00 | 1006.6 |